Location: Rimouski
(48.4330°N, 68.5170°W)
Time: 22:54:07
(UTC-04:00)

Daily predictions for brighter satellites

Satellite Brightness Start Highest point End
(mag) Time Altitude Azimuth Time Altitude Azimuth Time Altitude Azimuth
Meteor 2-14 Rocket 4.4 17:55:39 10° S 18:01:41 69° E 18:07:43 10° NNE
Aureole 1 Rocket 3.5 17:57:31 10° SSW 18:03:39 77° ESE 18:08:15 10° NNE
CZ-2C R/B 4.3 18:00:12 10° SSW 18:04:23 35° W 18:08:40 10° NNW
Gbstr 26 Del rocket 3.4 18:00:09 10° WNW 18:04:47 77° NNE 18:10:34 10° ESE
Cosmos-2242 3.1 18:00:48 10° S 18:05:04 86° W 18:09:21 10° N
Cosmos 2237 4.3 17:59:49 10° NNW 18:05:30 57° ENE 18:11:08 10° SE
Meteor 2-16 Rocket 4.5 18:00:29 10° S 18:06:30 65° E 18:12:36 10° NNE
YAOGAN 1 2.6 18:02:38 10° SSE 18:06:55 66° ENE 18:11:14 10° N
Cosmos 2218 Rocket 4.0 18:02:19 10° S 18:08:24 70° E 18:14:32 10° NNE
Cosmos 1420 Rocket 4.2 18:06:52 10° NNW 18:12:07 54° ENE 18:17:17 10° SE
Cosmos 2237 Rocket 3.5 18:08:16 10° N 18:12:38 22° NE 18:16:59 10° E
Cosmos 1727 Rocket 4.0 18:06:55 10° N 18:13:19 70° E 18:19:37 10° SSE
BREEZE-M DEB (TANK) 3.2 18:12:23 10° SSW 18:14:16 21° SSE 18:15:52 10° E
Cosmos 2058 2.9 18:10:11 10° N 18:14:22 62° ENE 18:18:28 10° SSE
Cosmos 1908 4.2 18:12:07 10° SSE 18:15:26 27° E 18:18:46 10° NNE
Cosmos 44 4.5 18:15:39 10° SSE 18:18:41 19° ESE 18:21:43 10° ENE
Abrixas rocket 2.2 18:16:31 10° W 18:19:48 85° S 18:22:48 12° E
Cosmos 1626 2.3 18:18:32 10° NNW 18:22:18 79° W 18:26:02 10° S
SL-16 R/B 4.0 18:20:09 10° N 18:23:15 15° NNE 18:26:22 10° ENE
GRACE-2 4.4 18:21:25 10° SSE 18:23:44 30° E 18:26:03 10° NNE
Aureole 2 4.1 18:21:35 10° NNW 18:24:37 69° ENE 18:27:57 10° SSE
GP-B 3.0 18:20:12 10° N 18:24:40 74° E 18:29:06 10° S
H-2A R/B 4.1 18:22:18 10° ESE 18:25:16 21° ENE 18:28:15 10° NNE
Cosmos 1400 Rocket 3.1 18:21:34 10° NNW 18:25:37 73° W 18:29:34 10° S
Cosmos 1461 4.1 18:23:27 10° WSW 18:27:21 41° NW 18:31:27 10° NNE
GRACE-1 4.2 18:25:17 10° SSE 18:27:42 36° E 18:30:08 10° NNE
Centaur D AC-29 4.4 18:20:31 10° SW 18:27:48 15° SSW 18:31:35 10° SSE
SMAP 4.3 18:23:55 10° S 18:28:24 47° W 18:32:55 10° NNW
SKYMED 2 3.8 18:24:28 10° NNE 18:28:43 49° E 18:32:56 10° S
MOS 1 4.3 18:25:17 10° SSE 18:30:58 85° ENE 18:36:42 10° NNW
Cosmos 1743 Rocket 4.0 18:26:42 10° NNW 18:31:04 69° W 18:35:26 10° S
BREEZE-M DEB (TANK) 4.0 18:17:53 10° WSW 18:32:20 71° S 18:36:08 14° E
Cosmos 2360 Rocket 2.7 18:29:34 10° NNW 18:35:10 64° WSW 18:40:46 10° SSE
SL-8 R/B 4.1 18:31:09 10° SW 18:35:49 52° SSE 18:39:31 16° E
Cosmos 2221 2.9 18:33:04 10° SSE 18:37:07 40° E 18:41:12 10° NNE
Cosmos 921 Rocket 3.2 18:35:41 10° NNW 18:40:10 81° WSW 18:44:33 10° SSE
COSMOS 2428 2.7 18:36:23 10° NNW 18:42:05 72° ENE 18:47:46 10° SE
Cosmos 1842 Rocket 3.7 18:39:00 10° S 18:43:28 82° W 18:47:57 10° N
Cosmos 2084 3.7 18:40:11 10° NNW 18:43:46 39° NE 18:46:01 20° E
ATLAS 5 CENTAUR R/B 4.1 18:41:37 10° NW 18:45:00 17° N 18:48:38 10° NE
Cosmos 2333 Rocket 2.6 18:39:36 10° NNW 18:45:07 45° NE 18:50:24 11° SE
CZ-4 R/B 3.2 18:41:20 10° SSW 18:45:12 36° W 18:49:04 10° NNW
Cosmos 1300 4.1 18:42:28 10° SE 18:49:00 - NNE 18:44:41 19° E
Cosmos 44 Rocket 3.9 18:42:08 10° S 18:46:21 33° ESE 18:49:27 16° ENE
FREGAT/IRIS 3.3 18:47:06 20° ESE 18:48:33 31° ENE 18:51:16 10° N
Cosmos 1833 4.2 18:44:36 10° SSW 18:50:18 88° WNW 18:55:58 10° NNE
Cosmos 1500 Rocket 4.4 18:47:42 10° NNW 18:51:57 54° W 18:56:10 10° S
Cosmos 2219 3.7 18:47:06 10° S 18:52:20 38° ESE 18:57:35 10° NE
CZ-4C R/B 2.8 18:48:04 10° S 18:52:45 33° ESE 18:56:39 16° ENE
Cosmos 1269 Rocket 4.3 18:54:54 10° S 18:59:53 45° ESE 19:04:55 10° NNE
FENGYUN 3A 3.6 18:54:39 10° SSE 19:00:04 86° ENE 19:05:32 10° NNW
SPOT 3 Rocket 4.1 19:00:09 10° S 19:05:17 61° WSW 19:10:29 10° NNW
NOSS 0 Rocket 4.0 18:59:40 10° NNW 19:05:48 59° NE 19:10:37 17° SE
Cosmos 468 4.4 19:02:18 10° SSW 19:07:31 81° ESE 19:12:47 10° NNE
EO 1 Del DPAF 4.2 19:04:03 10° N 19:07:48 50° WNW 19:11:31 10° SSW
Resurs 01 Rocket 2.6 19:09:57 26° ENE 19:09:59 27° ENE 19:13:40 10° N
FengYun 1-2 T 4.1 19:05:48 10° SSE 19:11:15 67° ENE 19:16:42 10° N
Cosmos 1315 Rocket 4.1 19:07:37 10° NNW 19:11:30 44° W 19:15:25 10° SSW
COSMO-SKYMED 1 3.3 19:12:33 10° N 19:16:49 55° WNW 19:21:03 10° SSW
Aureole 2 Rocket 2.6 19:13:39 10° NNW 19:17:32 90° NE 19:20:31 18° SSE
Cosmos 1535 Rocket 4.4 19:12:40 10° S 19:18:43 66° E 19:24:46 10° NNE
Sich 1 2.9 19:14:57 10° N 19:19:20 67° E 19:23:42 10° SSE
Cosmos 2098 Rocket 3.4 19:15:52 10° S 19:20:35 79° E 19:26:39 10° N
USA 234 3.8 19:17:51 24° ENE 19:21:31 47° NNE 19:27:44 10° WNW
Meteor 2-10 4.1 19:17:53 10° SSE 19:22:44 50° E 19:27:42 10° NNE
Cosmos 2219 Rocket 2.1 19:17:37 10° NNW 19:23:16 89° WSW 19:28:19 13° SSE
Spot 2 Rocket 4.1 19:23:18 34° ENE 19:23:48 34° ENE 19:28:22 10° N
MOS 1-B Rocket 4.1 19:22:17 22° SE 19:25:53 53° ENE 19:31:59 10° N
ALOS 3.1 19:21:40 10° S 19:26:12 52° W 19:30:48 10° NNW
USA 32 4.4 19:22:12 10° N 19:27:10 41° ENE 19:28:03 38° ESE
Cosmos 1110 Rocket 3.9 19:23:32 10° NNW 19:28:53 73° ENE 19:31:54 26° SE
Cosmos 1726 2.0 19:25:37 10° S 19:29:19 89° WNW 19:33:02 10° N
Cosmos 1805 Rocket 4.0 19:26:25 10° NNW 19:30:46 64° W 19:35:06 10° S
Iridium 4 Rocket 4.0 19:25:09 10° S 19:30:47 74° W 19:36:44 10° N
SJ-6B 2.6 19:35:42 41° S 19:36:55 87° W 19:40:41 10° NNW
Lacrosse 5 rocket 2.9 19:34:04 10° WNW 19:37:43 25° N 19:38:40 23° NNE
Cosmos 1666 Rocket 3.6 19:35:30 10° NNW 19:39:52 78° W 19:43:26 15° S
BREEZE-M DEB (TANK) 4.0 19:27:17 10° WNW 19:46:01 71° SSW 19:48:19 38° SE
Cosmos 1633 Rocket 3.1 19:41:58 10° NNW 19:46:24 81° W 19:48:38 29° S
Cosmos 1821 Rocket 4.2 19:43:12 10° SSW 19:49:21 70° W 19:55:39 10° N
Cosmos 1934 Rocket 4.0 19:44:53 10° S 19:51:16 86° W 19:57:41 10° N
Cosmos 1048 Rocket 4.4 19:46:37 10° SW 19:51:41 61° WNW 19:56:47 10° NNE
In-Cosmos 22 Rocket 4.3 19:50:32 10° NNW 19:56:16 78° W 20:01:27 13° S
Abrixas rocket 3.6 19:53:09 10° W 19:55:20 38° W 19:55:20 38° W
Cosmos 2237 Rocket 2.1 19:51:44 10° NNW 19:57:30 88° WSW 19:59:13 47° SSE
Envisat 2.9 19:58:34 68° ENE 19:58:36 68° ENE 20:03:40 10° N
H-2A R/B 4.1 19:55:44 11° SSW 19:59:18 39° W 20:03:01 10° NNW
Cosmos 44 3.4 19:55:09 10° SW 19:59:27 62° NW 20:00:11 52° N
Thor Agena Rocket 4.0 19:58:29 10° N 20:03:32 59° WNW 20:08:28 10° SSW
Cosmos 2227 Rocket 3.6 20:02:42 10° S 20:04:49 23° S 20:04:49 23° S
SL-16 R/B 2.4 20:03:10 10° NNW 20:08:15 52° NE 20:08:15 52° NE
Meteor 2-3 Rocket 3.6 20:09:06 10° N 20:14:55 85° ENE 20:15:17 78° SE
SL-8 R/B 4.0 20:13:23 10° W 20:17:29 64° W 20:17:29 64° W
Cosmos 1300 4.3 20:17:10 10° SW 20:23:49 13° N 20:24:16 10° N
Cosmos 1980 4.2 20:15:45 10° NW 20:21:16 56° WSW 20:22:47 43° SSW
Cosmos 1605 Rocket 4.1 20:17:35 10° SSW 20:23:41 73° W 20:29:47 10° N
Cosmos 1153 Rocket 4.3 20:26:36 80° NE 20:26:36 80° NE 20:32:33 10° N
USA 267 3.8 20:28:50 40° S 20:28:50 40° S 20:33:18 10° SSW
Cosmos 44 Rocket 4.2 20:23:19 10° WSW 20:27:47 42° NW 20:28:13 41° NNW
Cosmos 2333 Rocket 3.6 20:24:06 10° NW 20:29:17 35° WSW 20:32:29 20° SSW
ATLAS 5 CENTAUR R/B 3.8 20:27:07 10° NNW 20:31:01 24° NNE 20:31:01 24° NNE
Cosmos 2219 4.3 20:31:01 10° SW 20:36:27 43° NW 20:41:19 13° NNE
CZ-4C R/B 2.8 20:35:38 10° WSW 20:40:57 54° NW 20:41:54 49° N
Resurs 01 Rocket 3.3 20:47:33 31° WNW 20:47:33 31° WNW 20:50:27 10° NNW
USA 234 3.4 21:05:13 67° NW 21:05:13 67° NW 21:10:47 10° NW
H-2A R/B 4.4 21:16:05 16° N 21:16:05 16° N 21:17:09 10° N
Lacrosse 5 rocket 4.4 21:13:51 10° NW 21:14:21 13° NW 21:14:21 13° NW
SL-16 R/B 4.4 21:47:47 10° NW 21:50:09 21° WNW 21:50:09 21° WNW
